﻿_id,日時,10分間移動積算雨量(mm),1時間移動積算雨量(mm),日雨量(mm),累計雨量(mm)
1,2022-10-10T00:00:00,0,2.5,45.5,45.5
2,2022-10-10T00:01:00,0,2.5,0,45.5
3,2022-10-10T00:02:00,0,2.5,0,45.5
4,2022-10-10T00:03:00,0,2,0,45.5
5,2022-10-10T00:04:00,0,2,0,45.5
6,2022-10-10T00:05:00,0,2,0,45.5
7,2022-10-10T00:06:00,0,2,0,45.5
8,2022-10-10T00:07:00,0,2,0,45.5
9,2022-10-10T00:08:00,0,2,0,45.5
10,2022-10-10T00:09:00,0,2,0,45.5
11,2022-10-10T00:10:00,0,2,0,45.5
12,2022-10-10T00:11:00,0,2,0,45.5
13,2022-10-10T00:12:00,0,2,0,45.5
14,2022-10-10T00:13:00,0,2,0,45.5
15,2022-10-10T00:14:00,0,2,0,45.5
16,2022-10-10T00:15:00,0,2,0,45.5
17,2022-10-10T00:16:00,0,2,0,45.5
18,2022-10-10T00:17:00,0,2,0,45.5
19,2022-10-10T00:18:00,0,2,0,45.5
20,2022-10-10T00:19:00,0,2,0,45.5
21,2022-10-10T00:20:00,0,1.5,0,45.5
22,2022-10-10T00:21:00,0,1.5,0,45.5
23,2022-10-10T00:22:00,0,1.5,0,45.5
24,2022-10-10T00:23:00,0,1.5,0,45.5
25,2022-10-10T00:24:00,0,1.5,0,45.5
26,2022-10-10T00:25:00,0,1,0,45.5
27,2022-10-10T00:26:00,0,1,0,45.5
28,2022-10-10T00:27:00,0,1,0,45.5
29,2022-10-10T00:28:00,0,0.5,0,45.5
30,2022-10-10T00:29:00,0,0.5,0,45.5
31,2022-10-10T00:30:00,0,0.5,0,45.5
32,2022-10-10T00:31:00,0,0.5,0,45.5
33,2022-10-10T00:32:00,0,0.5,0,45.5
34,2022-10-10T00:33:00,0,0.5,0,45.5
35,2022-10-10T00:34:00,0,0.5,0,45.5
36,2022-10-10T00:35:00,0,0.5,0,45.5
37,2022-10-10T00:36:00,0,0.5,0,45.5
38,2022-10-10T00:37:00,0,0.5,0,45.5
39,2022-10-10T00:38:00,0,0.5,0,45.5
40,2022-10-10T00:39:00,0,0.5,0,45.5
41,2022-10-10T00:40:00,0,0.5,0,45.5
42,2022-10-10T00:41:00,0,0.5,0,45.5
43,2022-10-10T00:42:00,0,0.5,0,45.5
44,2022-10-10T00:43:00,0,0.5,0,45.5
45,2022-10-10T00:44:00,0,0.5,0,45.5
46,2022-10-10T00:45:00,0,0.5,0,45.5
47,2022-10-10T00:46:00,0,0,0,45.5
48,2022-10-10T00:47:00,0,0,0,45.5
49,2022-10-10T00:48:00,0,0,0,45.5
50,2022-10-10T00:49:00,0,0,0,45.5
51,2022-10-10T00:50:00,0,0,0,45.5
52,2022-10-10T00:51:00,0,0,0,45.5
53,2022-10-10T00:52:00,0,0,0,45.5
54,2022-10-10T00:53:00,0,0,0,45.5
55,2022-10-10T00:54:00,0,0,0,45.5
56,2022-10-10T00:55:00,0,0,0,45.5
57,2022-10-10T00:56:00,0,0,0,45.5
58,2022-10-10T00:57:00,0,0,0,45.5
59,2022-10-10T00:58:00,0,0,0,45.5
60,2022-10-10T00:59:00,0,0,0,45.5
61,2022-10-10T01:00:00,0,0,0,45.5
62,2022-10-10T01:01:00,0,0,0,45.5
63,2022-10-10T01:02:00,0,0,0,45.5
64,2022-10-10T01:03:00,0,0,0,45.5
65,2022-10-10T01:04:00,0,0,0,45.5
66,2022-10-10T01:05:00,0,0,0,45.5
67,2022-10-10T01:06:00,0,0,0,45.5
68,2022-10-10T01:07:00,0,0,0,45.5
69,2022-10-10T01:08:00,0,0,0,45.5
70,2022-10-10T01:09:00,0,0,0,45.5
71,2022-10-10T01:10:00,0,0,0,45.5
72,2022-10-10T01:11:00,0,0,0,45.5
73,2022-10-10T01:12:00,0,0,0,45.5
74,2022-10-10T01:13:00,0,0,0,45.5
75,2022-10-10T01:14:00,0,0,0,45.5
76,2022-10-10T01:15:00,0,0,0,45.5
77,2022-10-10T01:16:00,0,0,0,45.5
78,2022-10-10T01:17:00,0,0,0,45.5
79,2022-10-10T01:18:00,0,0,0,45.5
80,2022-10-10T01:19:00,0,0,0,45.5
81,2022-10-10T01:20:00,0,0,0,45.5
82,2022-10-10T01:21:00,0,0,0,45.5
83,2022-10-10T01:22:00,0,0,0,45.5
84,2022-10-10T01:23:00,0,0,0,45.5
85,2022-10-10T01:24:00,0,0,0,45.5
86,2022-10-10T01:25:00,0,0,0,45.5
87,2022-10-10T01:26:00,0.5,0.5,0.5,46
88,2022-10-10T01:27:00,0.5,0.5,0.5,46
89,2022-10-10T01:28:00,0.5,0.5,0.5,46
90,2022-10-10T01:29:00,0.5,0.5,0.5,46
91,2022-10-10T01:30:00,0.5,0.5,0.5,46
92,2022-10-10T01:31:00,0.5,0.5,0.5,46
93,2022-10-10T01:32:00,0.5,0.5,0.5,46
94,2022-10-10T01:33:00,0.5,0.5,0.5,46
95,2022-10-10T01:34:00,0.5,0.5,0.5,46
96,2022-10-10T01:35:00,0.5,0.5,0.5,46
97,2022-10-10T01:36:00,0,0.5,0.5,46
98,2022-10-10T01:37:00,0,0.5,0.5,46
99,2022-10-10T01:38:00,0,0.5,0.5,46
100,2022-10-10T01:39:00,0,0.5,0.5,46
101,2022-10-10T01:40:00,0,0.5,0.5,46
102,2022-10-10T01:41:00,0,0.5,0.5,46
103,2022-10-10T01:42:00,0,0.5,0.5,46
104,2022-10-10T01:43:00,0,0.5,0.5,46
105,2022-10-10T01:44:00,0,0.5,0.5,46
106,2022-10-10T01:45:00,0.5,1,1,46.5
107,2022-10-10T01:46:00,0.5,1,1,46.5
108,2022-10-10T01:47:00,0.5,1,1,46.5
109,2022-10-10T01:48:00,0.5,1,1,46.5
110,2022-10-10T01:49:00,0.5,1,1,46.5
111,2022-10-10T01:50:00,0.5,1,1,46.5
112,2022-10-10T01:51:00,0.5,1,1,46.5
113,2022-10-10T01:52:00,0.5,1,1,46.5
114,2022-10-10T01:53:00,0.5,1,1,46.5
115,2022-10-10T01:54:00,0.5,1,1,46.5
116,2022-10-10T01:55:00,0,1,1,46.5
117,2022-10-10T01:56:00,0,1,1,46.5
118,2022-10-10T01:57:00,0,1,1,46.5
119,2022-10-10T01:58:00,0.5,1.5,1.5,47
120,2022-10-10T01:59:00,0.5,1.5,1.5,47
121,2022-10-10T02:00:00,0.5,1.5,1.5,47
122,2022-10-10T02:01:00,0.5,1.5,1.5,47
123,2022-10-10T02:02:00,0.5,1.5,1.5,47
124,2022-10-10T02:03:00,0.5,1.5,1.5,47
125,2022-10-10T02:04:00,0.5,1.5,1.5,47
126,2022-10-10T02:05:00,1,2,2,47.5
127,2022-10-10T02:06:00,1,2,2,47.5
128,2022-10-10T02:07:00,1,2,2,47.5
129,2022-10-10T02:08:00,0.5,2,2,47.5
130,2022-10-10T02:09:00,0.5,2,2,47.5
131,2022-10-10T02:10:00,0.5,2,2,47.5
132,2022-10-10T02:11:00,0.5,2,2,47.5
133,2022-10-10T02:12:00,0.5,2,2,47.5
134,2022-10-10T02:13:00,1,2.5,2.5,48
135,2022-10-10T02:14:00,1,2.5,2.5,48
136,2022-10-10T02:15:00,0.5,2.5,2.5,48
137,2022-10-10T02:16:00,0.5,2.5,2.5,48
138,2022-10-10T02:17:00,0.5,2.5,2.5,48
139,2022-10-10T02:18:00,0.5,2.5,2.5,48
140,2022-10-10T02:19:00,0.5,2.5,2.5,48
141,2022-10-10T02:20:00,0.5,2.5,2.5,48
142,2022-10-10T02:21:00,1,3,3,48.5
143,2022-10-10T02:22:00,1,3,3,48.5
144,2022-10-10T02:23:00,0.5,3,3,48.5
145,2022-10-10T02:24:00,0.5,3,3,48.5
146,2022-10-10T02:25:00,0.5,3,3,48.5
147,2022-10-10T02:26:00,1,3,3.5,49
148,2022-10-10T02:27:00,1,3,3.5,49
149,2022-10-10T02:28:00,1.5,3.5,4,49.5
150,2022-10-10T02:29:00,1.5,3.5,4,49.5
151,2022-10-10T02:30:00,1.5,3.5,4,49.5
152,2022-10-10T02:31:00,1,3.5,4,49.5
153,2022-10-10T02:32:00,1.5,4,4.5,50
154,2022-10-10T02:33:00,1.5,4,4.5,50
155,2022-10-10T02:34:00,1.5,4,4.5,50
156,2022-10-10T02:35:00,1.5,4,4.5,50
157,2022-10-10T02:36:00,1,4,4.5,50
158,2022-10-10T02:37:00,1,4,4.5,50
159,2022-10-10T02:38:00,0.5,4,4.5,50
160,2022-10-10T02:39:00,0.5,4,4.5,50
161,2022-10-10T02:40:00,0.5,4,4.5,50
162,2022-10-10T02:41:00,0.5,4,4.5,50
163,2022-10-10T02:42:00,0.5,4.5,5,50.5
164,2022-10-10T02:43:00,0.5,4.5,5,50.5
165,2022-10-10T02:44:00,0.5,4.5,5,50.5
166,2022-10-10T02:45:00,0.5,4,5,50.5
167,2022-10-10T02:46:00,0.5,4,5,50.5
168,2022-10-10T02:47:00,0.5,4,5,50.5
169,2022-10-10T02:48:00,0.5,4,5,50.5
170,2022-10-10T02:49:00,0.5,4,5,50.5
171,2022-10-10T02:50:00,0.5,4,5,50.5
172,2022-10-10T02:51:00,0.5,4,5,50.5
173,2022-10-10T02:52:00,0,4,5,50.5
174,2022-10-10T02:53:00,0,4,5,50.5
175,2022-10-10T02:54:00,0,4,5,50.5
176,2022-10-10T02:55:00,0,4,5,50.5
177,2022-10-10T02:56:00,0,4,5,50.5
178,2022-10-10T02:57:00,0,4,5,50.5
179,2022-10-10T02:58:00,0,3.5,5,50.5
180,2022-10-10T02:59:00,0,3.5,5,50.5
181,2022-10-10T03:00:00,0,3.5,5,50.5
182,2022-10-10T03:01:00,0,3.5,5,50.5
183,2022-10-10T03:02:00,0,3.5,5,50.5
184,2022-10-10T03:03:00,0,3.5,5,50.5
185,2022-10-10T03:04:00,0,3.5,5,50.5
186,2022-10-10T03:05:00,0,3,5,50.5
187,2022-10-10T03:06:00,0,3,5,50.5
188,2022-10-10T03:07:00,0,3,5,50.5
189,2022-10-10T03:08:00,0,3,5,50.5
190,2022-10-10T03:09:00,0,3,5,50.5
191,2022-10-10T03:10:00,0,3,5,50.5
192,2022-10-10T03:11:00,0,3,5,50.5
193,2022-10-10T03:12:00,0,3,5,50.5
194,2022-10-10T03:13:00,0,2.5,5,50.5
195,2022-10-10T03:14:00,0,2.5,5,50.5
196,2022-10-10T03:15:00,0,2.5,5,50.5
197,2022-10-10T03:16:00,0,2.5,5,50.5
198,2022-10-10T03:17:00,0,2.5,5,50.5
199,2022-10-10T03:18:00,0,2.5,5,50.5
200,2022-10-10T03:19:00,0,2.5,5,50.5
201,2022-10-10T03:20:00,0,2.5,5,50.5
202,2022-10-10T03:21:00,0,2,5,50.5
203,2022-10-10T03:22:00,0,2,5,50.5
204,2022-10-10T03:23:00,0,2,5,50.5
205,2022-10-10T03:24:00,0,2,5,50.5
206,2022-10-10T03:25:00,0.5,2.5,5.5,51
207,2022-10-10T03:26:00,0.5,2,5.5,51
208,2022-10-10T03:27:00,0.5,2,5.5,51
209,2022-10-10T03:28:00,0.5,1.5,5.5,51
210,2022-10-10T03:29:00,0.5,1.5,5.5,51
211,2022-10-10T03:30:00,0.5,1.5,5.5,51
212,2022-10-10T03:31:00,0.5,1.5,5.5,51
213,2022-10-10T03:32:00,0.5,1,5.5,51
214,2022-10-10T03:33:00,0.5,1,5.5,51
215,2022-10-10T03:34:00,0.5,1,5.5,51
216,2022-10-10T03:35:00,0,1,5.5,51
217,2022-10-10T03:36:00,0,1,5.5,51
218,2022-10-10T03:37:00,0,1,5.5,51
219,2022-10-10T03:38:00,0,1,5.5,51
220,2022-10-10T03:39:00,0,1,5.5,51
221,2022-10-10T03:40:00,0,1,5.5,51
222,2022-10-10T03:41:00,0,1,5.5,51
223,2022-10-10T03:42:00,0,0.5,5.5,51
224,2022-10-10T03:43:00,0,0.5,5.5,51
225,2022-10-10T03:44:00,0,0.5,5.5,51
226,2022-10-10T03:45:00,0,0.5,5.5,51
227,2022-10-10T03:46:00,0,0.5,5.5,51
228,2022-10-10T03:47:00,0,0.5,5.5,51
229,2022-10-10T03:48:00,0,0.5,5.5,51
230,2022-10-10T03:49:00,0,0.5,5.5,51
231,2022-10-10T03:50:00,0,0.5,5.5,51
232,2022-10-10T03:51:00,0,0.5,5.5,51
233,2022-10-10T03:52:00,0,0.5,5.5,51
234,2022-10-10T03:53:00,0,0.5,5.5,51
235,2022-10-10T03:54:00,0,0.5,5.5,51
236,2022-10-10T03:55:00,0,0.5,5.5,51
237,2022-10-10T03:56:00,0,0.5,5.5,51
238,2022-10-10T03:57:00,0,0.5,5.5,51
239,2022-10-10T03:58:00,0,0.5,5.5,51
240,2022-10-10T03:59:00,0,0.5,5.5,51
241,2022-10-10T04:00:00,0.5,1,6,51.5
242,2022-10-10T04:01:00,0.5,1,6,51.5
243,2022-10-10T04:02:00,0.5,1,6,51.5
244,2022-10-10T04:03:00,0.5,1,6,51.5
245,2022-10-10T04:04:00,0.5,1,6,51.5
246,2022-10-10T04:05:00,0.5,1,6,51.5
247,2022-10-10T04:06:00,0.5,1,6,51.5
248,2022-10-10T04:07:00,0.5,1,6,51.5
249,2022-10-10T04:08:00,0.5,1,6,51.5
250,2022-10-10T04:09:00,0.5,1,6,51.5
251,2022-10-10T04:10:00,0,1,6,51.5
252,2022-10-10T04:11:00,0,1,6,51.5
253,2022-10-10T04:12:00,0,1,6,51.5
254,2022-10-10T04:13:00,0,1,6,51.5
255,2022-10-10T04:14:00,0,1,6,51.5
256,2022-10-10T04:15:00,0,1,6,51.5
257,2022-10-10T04:16:00,0,1,6,51.5
258,2022-10-10T04:17:00,0,1,6,51.5
259,2022-10-10T04:18:00,0,1,6,51.5
260,2022-10-10T04:19:00,0,1,6,51.5
261,2022-10-10T04:20:00,0,1,6,51.5
262,2022-10-10T04:21:00,0,1,6,51.5
263,2022-10-10T04:22:00,0,1,6,51.5
264,2022-10-10T04:23:00,0,1,6,51.5
265,2022-10-10T04:24:00,0,1,6,51.5
266,2022-10-10T04:25:00,0.5,1,6.5,52
267,2022-10-10T04:26:00,0.5,1,6.5,52
268,2022-10-10T04:27:00,0.5,1,6.5,52
269,2022-10-10T04:28:00,0.5,1,6.5,52
270,2022-10-10T04:29:00,0.5,1,6.5,52
271,2022-10-10T04:30:00,1,1.5,7,52.5
272,2022-10-10T04:31:00,1,1.5,7,52.5
273,2022-10-10T04:32:00,1,1.5,7,52.5
274,2022-10-10T04:33:00,1,1.5,7,52.5
275,2022-10-10T04:34:00,1,1.5,7,52.5
276,2022-10-10T04:35:00,0.5,1.5,7,52.5
277,2022-10-10T04:36:00,,,,
278,2022-10-10T04:37:00,0.5,1.5,7,52.5
279,2022-10-10T04:38:00,0.5,1.5,7,52.5
280,2022-10-10T04:39:00,1,2,7.5,53
281,2022-10-10T04:40:00,0.5,2,7.5,53
282,2022-10-10T04:41:00,0.5,2,7.5,53
283,2022-10-10T04:42:00,0.5,2,7.5,53
284,2022-10-10T04:43:00,1,2.5,8,53.5
285,2022-10-10T04:44:00,1,2.5,8,53.5
286,2022-10-10T04:45:00,1,2.5,8,53.5
287,2022-10-10T04:46:00,1,2.5,8,53.5
288,2022-10-10T04:47:00,1,2.5,8,53.5
289,2022-10-10T04:48:00,1,2.5,8,53.5
290,2022-10-10T04:49:00,0.5,2.5,8,53.5
291,2022-10-10T04:50:00,0.5,2.5,8,53.5
292,2022-10-10T04:51:00,0.5,2.5,8,53.5
293,2022-10-10T04:52:00,1,3,8.5,54
294,2022-10-10T04:53:00,0.5,3,8.5,54
295,2022-10-10T04:54:00,0.5,3,8.5,54
296,2022-10-10T04:55:00,,,,
297,2022-10-10T04:56:00,0.5,3,8.5,54
298,2022-10-10T04:57:00,0.5,3,8.5,54
299,2022-10-10T04:58:00,0.5,3,8.5,54
300,2022-10-10T04:59:00,0.5,3,8.5,54
301,2022-10-10T05:00:00,0.5,2.5,8.5,54
302,2022-10-10T05:01:00,1,3,9,54.5
303,2022-10-10T05:02:00,0.5,3,9,54.5
304,2022-10-10T05:03:00,1,3.5,9.5,55
305,2022-10-10T05:04:00,1,3.5,9.5,55
306,2022-10-10T05:05:00,1.5,4,10,55.5
307,2022-10-10T05:06:00,2,4.5,10.5,56
308,2022-10-10T05:07:00,2,4.5,10.5,56
309,2022-10-10T05:08:00,2,4.5,10.5,56
310,2022-10-10T05:09:00,2,4.5,10.5,56
311,2022-10-10T05:10:00,2,4.5,10.5,56
312,2022-10-10T05:11:00,1.5,4.5,10.5,56
313,2022-10-10T05:12:00,1.5,4.5,10.5,56
314,2022-10-10T05:13:00,1.5,5,11,56.5
315,2022-10-10T05:14:00,1.5,5,11,56.5
316,2022-10-10T05:15:00,1.5,5.5,11.5,57
317,2022-10-10T05:16:00,1,5.5,11.5,57
318,2022-10-10T05:17:00,1,5.5,11.5,57
319,2022-10-10T05:18:00,1.5,6,12,57.5
320,2022-10-10T05:19:00,1.5,6,12,57.5
321,2022-10-10T05:20:00,1.5,6,12,57.5
322,2022-10-10T05:21:00,1.5,6,12,57.5
323,2022-10-10T05:22:00,1.5,6,12,57.5
324,2022-10-10T05:23:00,1,6,12,57.5
325,2022-10-10T05:24:00,1,6,12,57.5
326,2022-10-10T05:25:00,0.5,5.5,12,57.5
327,2022-10-10T05:26:00,1,6,12.5,58
328,2022-10-10T05:27:00,1,6,12.5,58
329,2022-10-10T05:28:00,0.5,6,12.5,58
330,2022-10-10T05:29:00,0.5,6,12.5,58
331,2022-10-10T05:30:00,0.5,5.5,12.5,58
332,2022-10-10T05:31:00,0.5,5.5,12.5,58
333,2022-10-10T05:32:00,0.5,5.5,12.5,58
334,2022-10-10T05:33:00,0.5,5.5,12.5,58
335,2022-10-10T05:34:00,0.5,5.5,12.5,58
336,2022-10-10T05:35:00,0.5,5.5,12.5,58
337,2022-10-10T05:36:00,0,5.5,12.5,58
338,2022-10-10T05:37:00,0,5.5,12.5,58
339,2022-10-10T05:38:00,0,5.5,12.5,58
340,2022-10-10T05:39:00,0,5,12.5,58
341,2022-10-10T05:40:00,0,5,12.5,58
342,2022-10-10T05:41:00,0,5,12.5,58
343,2022-10-10T05:42:00,0,5,12.5,58
344,2022-10-10T05:43:00,0,4.5,12.5,58
345,2022-10-10T05:44:00,0,4.5,12.5,58
346,2022-10-10T05:45:00,0,4.5,12.5,58
347,2022-10-10T05:46:00,0,4.5,12.5,58
348,2022-10-10T05:47:00,0,4.5,12.5,58
349,2022-10-10T05:48:00,0,4.5,12.5,58
350,2022-10-10T05:49:00,0,4.5,12.5,58
351,2022-10-10T05:50:00,0,4.5,12.5,58
352,2022-10-10T05:51:00,0,4.5,12.5,58
353,2022-10-10T05:52:00,0,4,12.5,58
354,2022-10-10T05:53:00,0,4,12.5,58
355,2022-10-10T05:54:00,0,4,12.5,58
356,2022-10-10T05:55:00,0,4,12.5,58
357,2022-10-10T05:56:00,0,4,12.5,58
358,2022-10-10T05:57:00,0,4,12.5,58
359,2022-10-10T05:58:00,0,4,12.5,58
360,2022-10-10T05:59:00,0,4,12.5,58
361,2022-10-10T06:00:00,0,4,12.5,58
362,2022-10-10T06:01:00,0,3.5,12.5,58
363,2022-10-10T06:02:00,0,3.5,12.5,58
364,2022-10-10T06:03:00,0,3,12.5,58
365,2022-10-10T06:04:00,0,3,12.5,58
366,2022-10-10T06:05:00,0,2.5,12.5,58
367,2022-10-10T06:06:00,0,2,12.5,58
368,2022-10-10T06:07:00,0,2,12.5,58
369,2022-10-10T06:08:00,0,2,12.5,58
370,2022-10-10T06:09:00,0,2,12.5,58
371,2022-10-10T06:10:00,0,2,12.5,58
372,2022-10-10T06:11:00,0,2,12.5,58
373,2022-10-10T06:12:00,0,2,12.5,58
374,2022-10-10T06:13:00,0,1.5,12.5,58
375,2022-10-10T06:14:00,0,1.5,12.5,58
376,2022-10-10T06:15:00,0,1,12.5,58
377,2022-10-10T06:16:00,0,1,12.5,58
378,2022-10-10T06:17:00,0,1,12.5,58
379,2022-10-10T06:18:00,0,0.5,12.5,58
380,2022-10-10T06:19:00,0,0.5,12.5,58
381,2022-10-10T06:20:00,0,0.5,12.5,58
382,2022-10-10T06:21:00,0,0.5,12.5,58
383,2022-10-10T06:22:00,0,0.5,12.5,58
384,2022-10-10T06:23:00,0,0.5,12.5,58
385,2022-10-10T06:24:00,0,0.5,12.5,58
386,2022-10-10T06:25:00,0,0.5,12.5,58
387,2022-10-10T06:26:00,0,0,12.5,58
388,2022-10-10T06:27:00,0,0,12.5,58
389,2022-10-10T06:28:00,0,0,12.5,58
390,2022-10-10T06:29:00,0,0,12.5,58
391,2022-10-10T06:30:00,0,0,12.5,58
392,2022-10-10T06:31:00,0,0,12.5,58
393,2022-10-10T06:32:00,0,0,12.5,58
394,2022-10-10T06:33:00,0,0,12.5,58
395,2022-10-10T06:34:00,0,0,12.5,58
396,2022-10-10T06:35:00,0,0,12.5,58
397,2022-10-10T06:36:00,0,0,12.5,58
398,2022-10-10T06:37:00,0,0,12.5,58
399,2022-10-10T06:38:00,0,0,12.5,58
400,2022-10-10T06:39:00,0,0,12.5,58
401,2022-10-10T06:40:00,0,0,12.5,58
402,2022-10-10T06:41:00,0,0,12.5,58
403,2022-10-10T06:42:00,0,0,12.5,58
404,2022-10-10T06:43:00,0,0,12.5,58
405,2022-10-10T06:44:00,0,0,12.5,58
406,2022-10-10T06:45:00,0,0,12.5,58
407,2022-10-10T06:46:00,0,0,12.5,58
408,2022-10-10T06:47:00,0,0,12.5,58
409,2022-10-10T06:48:00,0,0,12.5,58
410,2022-10-10T06:49:00,0,0,12.5,58
411,2022-10-10T06:50:00,0,0,12.5,58
412,2022-10-10T06:51:00,0,0,12.5,58
413,2022-10-10T06:52:00,0,0,12.5,58
414,2022-10-10T06:53:00,0,0,12.5,58
415,2022-10-10T06:54:00,0,0,12.5,58
416,2022-10-10T06:55:00,0,0,12.5,58
417,2022-10-10T06:56:00,0,0,12.5,58
418,2022-10-10T06:57:00,0,0,12.5,58
419,2022-10-10T06:58:00,0,0,12.5,58
420,2022-10-10T06:59:00,0,0,12.5,58
421,2022-10-10T07:00:00,0,0,12.5,58
422,2022-10-10T07:01:00,0,0,12.5,58
423,2022-10-10T07:02:00,0,0,12.5,58
424,2022-10-10T07:03:00,0,0,12.5,58
425,2022-10-10T07:04:00,0,0,12.5,58
426,2022-10-10T07:05:00,0,0,12.5,58
427,2022-10-10T07:06:00,0,0,12.5,58
428,2022-10-10T07:07:00,0,0,12.5,58
429,2022-10-10T07:08:00,0,0,12.5,58
430,2022-10-10T07:09:00,0,0,12.5,58
431,2022-10-10T07:10:00,0,0,12.5,58
432,2022-10-10T07:11:00,0,0,12.5,58
433,2022-10-10T07:12:00,0,0,12.5,58
434,2022-10-10T07:13:00,0,0,12.5,58
435,2022-10-10T07:14:00,0,0,12.5,58
436,2022-10-10T07:15:00,0,0,12.5,58
437,2022-10-10T07:16:00,0,0,12.5,58
438,2022-10-10T07:17:00,0,0,12.5,58
439,2022-10-10T07:18:00,0,0,12.5,58
440,2022-10-10T07:19:00,0,0,12.5,58
441,2022-10-10T07:20:00,0,0,12.5,58
442,2022-10-10T07:21:00,0,0,12.5,58
443,2022-10-10T07:22:00,0,0,12.5,58
444,2022-10-10T07:23:00,0,0,12.5,58
445,2022-10-10T07:24:00,0,0,12.5,58
446,2022-10-10T07:25:00,0,0,12.5,58
447,2022-10-10T07:26:00,0,0,12.5,58
448,2022-10-10T07:27:00,0,0,12.5,58
449,2022-10-10T07:28:00,0,0,12.5,58
450,2022-10-10T07:29:00,0,0,12.5,58
451,2022-10-10T07:30:00,0,0,12.5,58
452,2022-10-10T07:31:00,0,0,12.5,58
453,2022-10-10T07:32:00,0,0,12.5,58
454,2022-10-10T07:33:00,0,0,12.5,58
455,2022-10-10T07:34:00,0,0,12.5,58
456,2022-10-10T07:35:00,0,0,12.5,58
457,2022-10-10T07:36:00,0,0,12.5,58
458,2022-10-10T07:37:00,0,0,12.5,58
459,2022-10-10T07:38:00,0,0,12.5,58
460,2022-10-10T07:39:00,0,0,12.5,58
461,2022-10-10T07:40:00,0,0,12.5,58
462,2022-10-10T07:41:00,0,0,12.5,58
463,2022-10-10T07:42:00,0,0,12.5,58
464,2022-10-10T07:43:00,0,0,12.5,58
465,2022-10-10T07:44:00,0,0,12.5,58
466,2022-10-10T07:45:00,0,0,12.5,58
467,2022-10-10T07:46:00,0,0,12.5,58
468,2022-10-10T07:47:00,0,0,12.5,58
469,2022-10-10T07:48:00,0,0,12.5,58
470,2022-10-10T07:49:00,0,0,12.5,58
471,2022-10-10T07:50:00,0,0,12.5,58
472,2022-10-10T07:51:00,0,0,12.5,58
473,2022-10-10T07:52:00,0,0,12.5,58
474,2022-10-10T07:53:00,0,0,12.5,58
475,2022-10-10T07:54:00,0,0,12.5,58
476,2022-10-10T07:55:00,0,0,12.5,58
477,2022-10-10T07:56:00,0,0,12.5,58
478,2022-10-10T07:57:00,0,0,12.5,58
479,2022-10-10T07:58:00,0,0,12.5,58
480,2022-10-10T07:59:00,0,0,12.5,58
481,2022-10-10T08:00:00,0,0,12.5,58
482,2022-10-10T08:01:00,0,0,12.5,58
483,2022-10-10T08:02:00,0,0,12.5,58
484,2022-10-10T08:03:00,0,0,12.5,58
485,2022-10-10T08:04:00,0,0,12.5,58
486,2022-10-10T08:05:00,0,0,12.5,58
487,2022-10-10T08:06:00,0,0,12.5,58
488,2022-10-10T08:07:00,0,0,12.5,58
489,2022-10-10T08:08:00,0,0,12.5,58
490,2022-10-10T08:09:00,0,0,12.5,58
491,2022-10-10T08:10:00,0,0,12.5,58
492,2022-10-10T08:11:00,0,0,12.5,58
493,2022-10-10T08:12:00,0,0,12.5,58
494,2022-10-10T08:13:00,0,0,12.5,58
495,2022-10-10T08:14:00,0,0,12.5,58
496,2022-10-10T08:15:00,0,0,12.5,58
497,2022-10-10T08:16:00,0,0,12.5,58
498,2022-10-10T08:17:00,0,0,12.5,58
499,2022-10-10T08:18:00,0,0,12.5,58
500,2022-10-10T08:19:00,0,0,12.5,58
501,2022-10-10T08:20:00,0,0,12.5,58
502,2022-10-10T08:21:00,0,0,12.5,58
503,2022-10-10T08:22:00,0,0,12.5,58
504,2022-10-10T08:23:00,0,0,12.5,58
505,2022-10-10T08:24:00,0,0,12.5,58
506,2022-10-10T08:25:00,0,0,12.5,58
507,2022-10-10T08:26:00,0,0,12.5,58
508,2022-10-10T08:27:00,0,0,12.5,58
509,2022-10-10T08:28:00,0,0,12.5,58
510,2022-10-10T08:29:00,0,0,12.5,58
511,2022-10-10T08:30:00,0,0,12.5,58
512,2022-10-10T08:31:00,0,0,12.5,58
513,2022-10-10T08:32:00,0,0,12.5,58
514,2022-10-10T08:33:00,0,0,12.5,58
515,2022-10-10T08:34:00,0,0,12.5,58
516,2022-10-10T08:35:00,0,0,12.5,58
517,2022-10-10T08:36:00,0,0,12.5,58
518,2022-10-10T08:37:00,0,0,12.5,58
519,2022-10-10T08:38:00,0,0,12.5,58
520,2022-10-10T08:39:00,0,0,12.5,58
521,2022-10-10T08:40:00,0,0,12.5,58
522,2022-10-10T08:41:00,0,0,12.5,58
523,2022-10-10T08:42:00,0,0,12.5,58
524,2022-10-10T08:43:00,0,0,12.5,58
525,2022-10-10T08:44:00,0,0,12.5,58
526,2022-10-10T08:45:00,0,0,12.5,58
527,2022-10-10T08:46:00,0,0,12.5,58
528,2022-10-10T08:47:00,0,0,12.5,58
529,2022-10-10T08:48:00,0,0,12.5,58
530,2022-10-10T08:49:00,0,0,12.5,58
531,2022-10-10T08:50:00,0,0,12.5,58
532,2022-10-10T08:51:00,0,0,12.5,58
533,2022-10-10T08:52:00,0,0,12.5,58
534,2022-10-10T08:53:00,0,0,12.5,58
535,2022-10-10T08:54:00,0,0,12.5,58
536,2022-10-10T08:55:00,0,0,12.5,58
537,2022-10-10T08:56:00,0,0,12.5,58
538,2022-10-10T08:57:00,0,0,12.5,58
539,2022-10-10T08:58:00,0,0,12.5,58
540,2022-10-10T08:59:00,0,0,12.5,58
541,2022-10-10T09:00:00,0,0,12.5,58
542,2022-10-10T09:01:00,0,0,12.5,58
543,2022-10-10T09:02:00,0,0,12.5,58
544,2022-10-10T09:03:00,0,0,12.5,58
545,2022-10-10T09:04:00,0,0,12.5,58
546,2022-10-10T09:05:00,0,0,12.5,58
547,2022-10-10T09:06:00,0,0,12.5,58
548,2022-10-10T09:07:00,0,0,12.5,58
549,2022-10-10T09:08:00,0,0,12.5,58
550,2022-10-10T09:09:00,0,0,12.5,58
551,2022-10-10T09:10:00,0,0,12.5,58
552,2022-10-10T09:11:00,0,0,12.5,58
553,2022-10-10T09:12:00,0,0,12.5,58
554,2022-10-10T09:13:00,0,0,12.5,58
555,2022-10-10T09:14:00,0,0,12.5,58
556,2022-10-10T09:15:00,0,0,12.5,58
557,2022-10-10T09:16:00,0,0,12.5,58
558,2022-10-10T09:17:00,0,0,12.5,58
559,2022-10-10T09:18:00,0,0,12.5,58
560,2022-10-10T09:19:00,0,0,12.5,58
561,2022-10-10T09:20:00,0,0,12.5,58
562,2022-10-10T09:21:00,0,0,12.5,58
563,2022-10-10T09:22:00,0,0,12.5,58
564,2022-10-10T09:23:00,0,0,12.5,58
565,2022-10-10T09:24:00,0,0,12.5,58
566,2022-10-10T09:25:00,0,0,12.5,58
567,2022-10-10T09:26:00,0,0,12.5,58
568,2022-10-10T09:27:00,0,0,12.5,58
569,2022-10-10T09:28:00,0,0,12.5,58
570,2022-10-10T09:29:00,0,0,12.5,58
571,2022-10-10T09:30:00,0,0,12.5,58
572,2022-10-10T09:31:00,0,0,12.5,58
573,2022-10-10T09:32:00,0,0,12.5,58
574,2022-10-10T09:33:00,0,0,12.5,58
575,2022-10-10T09:34:00,0,0,12.5,58
576,2022-10-10T09:35:00,0,0,12.5,58
577,2022-10-10T09:36:00,0,0,12.5,58
578,2022-10-10T09:37:00,0,0,12.5,58
579,2022-10-10T09:38:00,0,0,12.5,58
580,2022-10-10T09:39:00,0,0,12.5,58
581,2022-10-10T09:40:00,0,0,12.5,58
582,2022-10-10T09:41:00,0,0,12.5,58
583,2022-10-10T09:42:00,0,0,12.5,58
584,2022-10-10T09:43:00,0,0,12.5,58
585,2022-10-10T09:44:00,0,0,12.5,58
586,2022-10-10T09:45:00,0,0,12.5,58
587,2022-10-10T09:46:00,0,0,12.5,58
588,2022-10-10T09:47:00,0,0,12.5,58
589,2022-10-10T09:48:00,0,0,12.5,58
590,2022-10-10T09:49:00,0,0,12.5,58
591,2022-10-10T09:50:00,0,0,12.5,58
592,2022-10-10T09:51:00,0,0,12.5,58
593,2022-10-10T09:52:00,0,0,12.5,58
594,2022-10-10T09:53:00,0,0,12.5,58
595,2022-10-10T09:54:00,0,0,12.5,58
596,2022-10-10T09:55:00,0,0,12.5,58
597,2022-10-10T09:56:00,0,0,12.5,58
598,2022-10-10T09:57:00,0,0,12.5,58
599,2022-10-10T09:58:00,0,0,12.5,58
600,2022-10-10T09:59:00,0,0,12.5,58
601,2022-10-10T10:00:00,0,0,12.5,58
602,2022-10-10T10:01:00,0,0,12.5,58
603,2022-10-10T10:02:00,0,0,12.5,58
604,2022-10-10T10:03:00,0,0,12.5,58
605,2022-10-10T10:04:00,0,0,12.5,58
606,2022-10-10T10:05:00,0,0,12.5,58
607,2022-10-10T10:06:00,0,0,12.5,58
608,2022-10-10T10:07:00,0,0,12.5,58
609,2022-10-10T10:08:00,0,0,12.5,58
610,2022-10-10T10:09:00,0,0,12.5,58
611,2022-10-10T10:10:00,0,0,12.5,58
612,2022-10-10T10:11:00,0,0,12.5,58
613,2022-10-10T10:12:00,0,0,12.5,58
614,2022-10-10T10:13:00,0,0,12.5,58
615,2022-10-10T10:14:00,0,0,12.5,58
616,2022-10-10T10:15:00,0,0,12.5,58
617,2022-10-10T10:16:00,0,0,12.5,58
618,2022-10-10T10:17:00,0,0,12.5,58
619,2022-10-10T10:18:00,0,0,12.5,58
620,2022-10-10T10:19:00,0,0,12.5,58
621,2022-10-10T10:20:00,0,0,12.5,58
622,2022-10-10T10:21:00,0,0,12.5,58
623,2022-10-10T10:22:00,0,0,12.5,58
624,2022-10-10T10:23:00,0,0,12.5,58
625,2022-10-10T10:24:00,0,0,12.5,58
626,2022-10-10T10:25:00,0,0,12.5,58
627,2022-10-10T10:26:00,0,0,12.5,58
628,2022-10-10T10:27:00,0,0,12.5,58
629,2022-10-10T10:28:00,0,0,12.5,58
630,2022-10-10T10:29:00,0,0,12.5,58
631,2022-10-10T10:30:00,0,0,12.5,58
632,2022-10-10T10:31:00,0,0,12.5,58
633,2022-10-10T10:32:00,0,0,12.5,58
634,2022-10-10T10:33:00,0,0,12.5,58
635,2022-10-10T10:34:00,0,0,12.5,58
636,2022-10-10T10:35:00,0,0,12.5,58
637,2022-10-10T10:36:00,0,0,12.5,58
638,2022-10-10T10:37:00,0,0,12.5,58
639,2022-10-10T10:38:00,0,0,12.5,58
640,2022-10-10T10:39:00,0,0,12.5,58
641,2022-10-10T10:40:00,0,0,12.5,58
642,2022-10-10T10:41:00,0,0,12.5,58
643,2022-10-10T10:42:00,0,0,12.5,58
644,2022-10-10T10:43:00,0,0,12.5,58
645,2022-10-10T10:44:00,0,0,12.5,58
646,2022-10-10T10:45:00,0,0,12.5,58
647,2022-10-10T10:46:00,0,0,12.5,58
648,2022-10-10T10:47:00,0,0,12.5,58
649,2022-10-10T10:48:00,0,0,12.5,58
650,2022-10-10T10:49:00,0,0,12.5,58
651,2022-10-10T10:50:00,0,0,12.5,58
652,2022-10-10T10:51:00,0,0,12.5,58
653,2022-10-10T10:52:00,0,0,12.5,58
654,2022-10-10T10:53:00,0,0,12.5,58
655,2022-10-10T10:54:00,0,0,12.5,58
656,2022-10-10T10:55:00,0,0,12.5,58
657,2022-10-10T10:56:00,0,0,12.5,58
658,2022-10-10T10:57:00,0,0,12.5,58
659,2022-10-10T10:58:00,0,0,12.5,58
660,2022-10-10T10:59:00,0,0,12.5,58